Showing default

APRIZESAT 8, 39425

Orbit data source: Space-Track

APRIZESAT 8, 39425 is a payload satellite owned by SpaceQuest (US) in SSO that was launched on Thu, 21 Nov 2013 UTC via a DNEPR launch vehicle from the Orenburg, Russia (OREN). Payload-class satellites include a variety of spacecraft equipped with specific instruments for various scientific and technological missions. These include communications satellites like Starlink; space stations such as the ISS; scientific satellites like the Hubble; Earth observation satellites from companies like Planet Labs, Umbra, and HawkEye 360; GPS; miniature CubeSats for education and research; and military/defense satellites.

Loading next visibility...
Identifier
39425, 2013-066K
Orbit
SSO
Country
Flag of USUS
Related business
Manufacturer
SpaceQuest
Mission
Operational Commercial Communications
Bus & Motor
APRIZE, Unknown motor
Mass
14 kg wet, 14 kg dry
Launch date (UTC)
2013-11-21 (12 years ago)
Launch vehicle
DNEPR
Launch site
Orenburg, Russia (OREN)
Object type
Payload
Rocket body
Debris
Shape & HBR
Box + 1 Ant, 0.1 m
Radar Cross Section
0.060 m², Medium (>0.1 m² and < 1m²)

Expand to show TLE details & history
Last TLE update: 10 hours ago

TLE from 10 hours ago
0 APRIZESAT 8
1 39425U 13066K   25300.43460998  .00002149  00000-0  24217-3 0  9997
2 39425  97.7923 246.6785 0045924 333.6982  26.1903 14.86908239645071
Epoch: 2025-10-27T10:25Z
TLE epoch observation values (Epoch: 2025-10-27T10:25:50.302Z)
Latitude
0.00006°
Longitude
54.1824°
Altitude
581.872 km
Speed
7.585 km/s
True Right ascension
16h 26m 42s
True Declination
0° 00' 00"
Sunlit
Object was in daylight at epoch
Visualization orbit readout
Latitude
Unknown
Longitude
Unknown
Altitude
Unknown
Speed
Unknown
Apparent Right ascension
Unknown
Apparent Declination
Unknown
Sunlit
N/A
Visualization observer readout
Local Sidereal Time
15:39:46
Azimuth
Unknown
Elevation
Unknown
Doppler factor
Unknown
Orbital elements
Apogee altitude
636.697 km
Perigee altitude
572.562 km
Semi-major axis
6,982.766 km
Eccentricity
0.00459
Inclination
97.7923°
RAAN
246.6785°
Arg. of periapsis
333.6982°
True anomaly
26.42376°
Mean anomaly
26.1903°
Eccentric anomaly
26.30691°
Mean motion
3.71965 °/min
Orbital period
96.78 mins
BSTAR
0.00024217
Loading maneuver chart data...
Computing Atmospheric mass density...
Loading historical data...
Loading historical data...
Loading historical data...
Loading historical data...
Loading historical data...
Loading historical data...
Loading historical data...

Documentation

Showing up to 5 results
|